EN

Hourly Weather Kadubivtsi

Today, 24 October, Saturday

Time Temperature Precipitation Wind Pressure Humidity
00:00 +13°C° 0 mm 0 mps 738 mmHg 75%
01:00 +13°C° 0 mm 1 mps 737 mmHg 77%
02:00 +13°C° 0 mm 1 mps 738 mmHg 78%
03:00 +12°C° 0 mm 0 mps 737 mmHg 79%
04:00 +12°C° 0 mm 0 mps 737 mmHg 80%
05:00 +12°C° 0 mm 1 mps 737 mmHg 83%
06:00 +12°C° 0 mm 1 mps 736 mmHg 84%
07:00 +12°C° 0 mm 1 mps 737 mmHg 85%
08:00 +12°C° 0 mm 1 mps 737 mmHg 90%
09:00 +13°C° 0 mm 1 mps 737 mmHg 89%
10:00 +15°C° 0 mm 1 mps 737 mmHg 89%
11:00 +17°C° 0 mm 3 mps 737 mmHg 84%
12:00 +18°C° 0 mm 4 mps 737 mmHg 79%
13:00 +18°C° 0 mm 4 mps 737 mmHg 80%
14:00 +18°C° 0 mm 4 mps 737 mmHg 80%
15:00 +18°C° 0 mm 4 mps 738 mmHg 80%
16:00 +18°C° 0 mm 3 mps 737 mmHg 83%
17:00 +17°C° 0 mm 2 mps 738 mmHg 87%
18:00 +14°C° 0 mm 3 mps 738 mmHg 95%
19:00 +15°C° 0 mm 2 mps 738 mmHg 96%
20:00 +14°C° 0 mm 2 mps 739 mmHg 96%
21:00 +14°C° 0 mm 2 mps 739 mmHg 95%
22:00 +14°C° 0 mm 2 mps 739 mmHg 96%
23:00 +12°C° 0 mm 3 mps 739 mmHg 98%

Tomorrow, 25 October, Sunday

Time Temperature Precipitation Wind Pressure Humidity
00:00 +13°C° 0 mm 2 mps 739 mmHg 98%
01:00 +11°C° 0 mm 3 mps 739 mmHg 96%
02:00 +12°C° 0 mm 2 mps 739 mmHg 98%
03:00 +12°C° 0 mm 2 mps 739 mmHg 98%
04:00 +12°C° 0 mm 2 mps 739 mmHg 97%
05:00 +12°C° 0 mm 2 mps 739 mmHg 97%
06:00 +11°C° 0 mm 1 mps 739 mmHg 97%
07:00 +11°C° 0 mm 1 mps 740 mmHg 97%
08:00 +11°C° 0 mm 1 mps 740 mmHg 97%
09:00 +10°C° 0 mm 2 mps 740 mmHg 97%
10:00 +10°C° 0 mm 2 mps 740 mmHg 97%
11:00 +10°C° 0 mm 2 mps 740 mmHg 94%
12:00 +10°C° 0 mm 2 mps 740 mmHg 96%
13:00 +10°C° 0.2 mm 3 mps 740 mmHg 97%
14:00 +11°C° 0.1 mm 3 mps 740 mmHg 95%
15:00 +10°C° 0.3 mm 3 mps 739 mmHg 98%
16:00 +10°C° 0.2 mm 3 mps 739 mmHg 98%
17:00 +10°C° 0.2 mm 3 mps 739 mmHg 100%
18:00 +10°C° 0.1 mm 3 mps 739 mmHg 100%
19:00 +10°C° 0 mm 3 mps 739 mmHg 100%
20:00 +10°C° 0 mm 3 mps 739 mmHg 100%
21:00 +10°C° 0.8 mm 3 mps 739 mmHg 100%
22:00 +10°C° 1.7 mm 3 mps 739 mmHg 100%
23:00 +10°C° 1.3 mm 4 mps 739 mmHg 100%

Day after tomorrow, 26 October, Monday

Time Temperature Precipitation Wind Pressure Humidity
00:00 +10°C° 3.1 mm 3 mps 739 mmHg 100%
01:00 +9°C° 4.9 mm 2 mps 738 mmHg 100%
02:00 +9°C° 2 mm 2 mps 738 mmHg 100%
03:00 +9°C° 0.7 mm 2 mps 738 mmHg 100%
04:00 +9°C° 0 mm 3 mps 738 mmHg 100%
05:00 +9°C° 0 mm 3 mps 738 mmHg 100%
06:00 +9°C° 0 mm 3 mps 737 mmHg 100%
07:00 +8°C° 0 mm 4 mps 737 mmHg 100%
08:00 +8°C° 0 mm 4 mps 738 mmHg 100%
09:00 +9°C° 0 mm 3 mps 738 mmHg 100%
10:00 +10°C° 0 mm 3 mps 738 mmHg 100%
11:00 +10°C° 0 mm 4 mps 738 mmHg 100%
12:00 +11°C° 0 mm 4 mps 738 mmHg 99%
13:00 +11°C° 0 mm 4 mps 737 mmHg 98%
14:00 +12°C° 0 mm 4 mps 737 mmHg 98%
15:00 +13°C° 0 mm 4 mps 737 mmHg 98%
16:00 +12°C° 0 mm 4 mps 737 mmHg 98%
17:00 +12°C° 0 mm 3 mps 737 mmHg 99%
18:00 +11°C° 0 mm 3 mps 737 mmHg 99%
19:00 +11°C° 0 mm 3 mps 737 mmHg 100%
20:00 +11°C° 0 mm 3 mps 738 mmHg 100%
21:00 +11°C° 0 mm 3 mps 738 mmHg 99%
22:00 +11°C° 0 mm 3 mps 738 mmHg 99%
23:00 +12°C° 0 mm 2 mps 738 mmHg 100%

, 27 October, Tuesday

Time Temperature Precipitation Wind Pressure Humidity
00:00 +10°C° 0 mm 2 mps 738 mmHg 100%
01:00 +10°C° 0 mm 2 mps 738 mmHg 100%
02:00 +11°C° 0 mm 1 mps 738 mmHg 100%
03:00 +11°C° 0 mm 1 mps 738 mmHg 100%
04:00 +10°C° 0 mm 2 mps 738 mmHg 100%
05:00 +10°C° 0 mm 2 mps 738 mmHg 100%
06:00 +11°C° 0 mm 1 mps 738 mmHg 100%
07:00 +11°C° 0 mm 1 mps 738 mmHg 100%
08:00 +11°C° 0 mm 1 mps 738 mmHg 100%
09:00 +12°C° 0 mm 2 mps 738 mmHg 100%
10:00 +11°C° 0 mm 3 mps 739 mmHg 100%
11:00 +11°C° 0 mm 3 mps 739 mmHg 100%
12:00 +12°C° 0 mm 2 mps 739 mmHg 100%
13:00 +13°C° 0 mm 3 mps 739 mmHg 97%
14:00 +14°C° 0 mm 5 mps 738 mmHg 95%
15:00 +14°C° 0 mm 4 mps 738 mmHg 95%
16:00 +13°C° 0 mm 4 mps 738 mmHg 96%
17:00 +13°C° 0 mm 4 mps 738 mmHg 98%
18:00 +12°C° 0 mm 4 mps 738 mmHg 99%
19:00 +12°C° 0 mm 3 mps 738 mmHg 100%
20:00 +12°C° 0 mm 4 mps 739 mmHg 100%
21:00 +12°C° 0 mm 4 mps 739 mmHg 98%
22:00 +12°C° 0 mm 4 mps 739 mmHg 99%
23:00 +11°C° 0 mm 3 mps 739 mmHg 99%

27 October, Tuesday

Time Temperature Precipitation Wind Pressure Humidity
00:00 +10°C° 0 mm 2 mps 738 mmHg 100%
01:00 +10°C° 0 mm 2 mps 738 mmHg 100%
02:00 +11°C° 0 mm 1 mps 738 mmHg 100%
03:00 +11°C° 0 mm 1 mps 738 mmHg 100%
04:00 +10°C° 0 mm 2 mps 738 mmHg 100%
05:00 +10°C° 0 mm 2 mps 738 mmHg 100%
06:00 +11°C° 0 mm 1 mps 738 mmHg 100%
07:00 +11°C° 0 mm 1 mps 738 mmHg 100%
08:00 +11°C° 0 mm 1 mps 738 mmHg 100%
09:00 +12°C° 0 mm 2 mps 738 mmHg 100%
10:00 +11°C° 0 mm 3 mps 739 mmHg 100%
11:00 +11°C° 0 mm 3 mps 739 mmHg 100%
12:00 +12°C° 0 mm 2 mps 739 mmHg 100%
13:00 +13°C° 0 mm 3 mps 739 mmHg 97%
14:00 +14°C° 0 mm 5 mps 738 mmHg 95%
15:00 +14°C° 0 mm 4 mps 738 mmHg 95%
16:00 +13°C° 0 mm 4 mps 738 mmHg 96%
17:00 +13°C° 0 mm 4 mps 738 mmHg 98%
18:00 +12°C° 0 mm 4 mps 738 mmHg 99%
19:00 +12°C° 0 mm 3 mps 738 mmHg 100%
20:00 +12°C° 0 mm 4 mps 739 mmHg 100%
21:00 +12°C° 0 mm 4 mps 739 mmHg 98%
22:00 +12°C° 0 mm 4 mps 739 mmHg 99%
23:00 +11°C° 0 mm 3 mps 739 mmHg 99%

28 October, Wednesday

Time Temperature Precipitation Wind Pressure Humidity
00:00 +11°C° 0 mm 3 mps 739 mmHg 99%
01:00 +11°C° 0 mm 3 mps 739 mmHg 100%
02:00 +11°C° 0 mm 3 mps 739 mmHg 100%
03:00 +12°C° 0 mm 2 mps 738 mmHg 100%
04:00 +12°C° 0 mm 2 mps 738 mmHg 100%
05:00 +12°C° 0 mm 2 mps 739 mmHg 100%
06:00 +11°C° 0 mm 3 mps 738 mmHg 100%
07:00 +12°C° 0 mm 2 mps 739 mmHg 100%
08:00 +12°C° 0 mm 2 mps 739 mmHg 100%
09:00 +13°C° 0 mm 2 mps 739 mmHg 100%
10:00 +12°C° 0 mm 3 mps 739 mmHg 100%
11:00 +11°C° 0 mm 3 mps 739 mmHg 100%
12:00 +11°C° 0 mm 3 mps 739 mmHg 99%
13:00 +11°C° 0 mm 3 mps 739 mmHg 99%
14:00 +11°C° 0 mm 3 mps 739 mmHg 99%
15:00 +11°C° 0 mm 3 mps 739 mmHg 99%
16:00 +10°C° 0 mm 3 mps 738 mmHg 99%
17:00 +10°C° 0 mm 3 mps 739 mmHg 99%
18:00 +10°C° 0 mm 3 mps 739 mmHg 99%
19:00 +10°C° 0 mm 3 mps 739 mmHg 99%
20:00 +10°C° 0 mm 3 mps 739 mmHg 100%
21:00 +10°C° 0 mm 2 mps 739 mmHg 99%
22:00 +10°C° 0 mm 2 mps 739 mmHg 100%
23:00 +10°C° 0 mm 2 mps 739 mmHg 100%

29 October, Thursday

Time Temperature Precipitation Wind Pressure Humidity
00:00 +10°C° 0 mm 2 mps 739 mmHg 100%
01:00 +10°C° 0 mm 2 mps 738 mmHg 100%
02:00 +10°C° 0 mm 2 mps 738 mmHg 100%
03:00 +10°C° 0 mm 2 mps 738 mmHg 100%
04:00 +10°C° 0 mm 2 mps 738 mmHg 100%
05:00 +11°C° 0 mm 1 mps 738 mmHg 100%
06:00 +11°C° 0 mm 1 mps 738 mmHg 100%
07:00 +11°C° 0 mm 1 mps 739 mmHg 100%
08:00 +11°C° 0 mm 1 mps 739 mmHg 100%
09:00 +11°C° 0 mm 1 mps 739 mmHg 100%
10:00 +11°C° 0 mm 1 mps 739 mmHg 100%
11:00 +11°C° 0 mm 1 mps 739 mmHg 99%
12:00 +11°C° 0 mm 1 mps 740 mmHg 97%
13:00 +11°C° 0 mm 1 mps 740 mmHg 98%
14:00 +10°C° 0 mm 2 mps 740 mmHg 97%
15:00 +11°C° 0 mm 3 mps 740 mmHg 97%
16:00 +11°C° 0 mm 3 mps 740 mmHg 97%
17:00 +11°C° 0 mm 1 mps 740 mmHg 98%
18:00 +11°C° 0 mm 1 mps 741 mmHg 99%
19:00 +10°C° 0 mm 2 mps 741 mmHg 100%
20:00 +9°C° 0 mm 3 mps 742 mmHg 100%
21:00 +9°C° 0 mm 2 mps 742 mmHg 100%
22:00 +9°C° 0 mm 2 mps 742 mmHg 100%
23:00 +9°C° 0 mm 3 mps 743 mmHg 100%
Show more

We Need Your Consent

Meteoprog and our Service Providers may store and access personal data such as cookies, device identifiers or other similar technologies on your device and process such data to personalise content and ads, as well as provide social media features and to analyse the traffic.

  • Store and/or access information on your device

    Cookies, device identifiers or other information can be stored or accessed on your device for the purposes indicated above.

  • Personalised ads and content, ad and content measurement, audience insights, and products development

    Ads and content can be personalised based on a profile. More data can be added to better personalise ads and content. Ad and content performance can be measured. Insights about the audience who saw the ads and content can be derived. Such data can be used to develop or improve user’s experience, systems and software.

By clicking ‘I Agree’ you will allow the use of indicated cookies, device identifiers, web beacons or other similar technologies. Your settings can be changed in the browser on your device.

For certain purposes, legitimate interests may be relied on, rather than consent. You can read more about this in our Privacy and Cookie Policy.